,,,PA_Meas_PMT16A,,PR_Meas_QMR101_102,,RH_Meas_QMH101,,SR_Meas_QMS101,,TA_Meas_QMH101,,GenWind,,GenWind,
date,time,status,PA,status,PR,status,RH,status,SR,status,TA,status,DirAvg,status,SpdAvg,
2010-10-17, 00:00:04,VALID,998.758,VALID,0,VALID,90.8383,VALID,0,VALID,23.389,VALID,349,VALID,0.426953,
2010-10-17, 00:01:04,VALID,998.729,VALID,0,VALID,90.8459,VALID,0,VALID,23.389,VALID,349,VALID,0.351953,
2010-10-17, 00:02:04,VALID,998.717,VALID,0,VALID,90.8535,VALID,0,VALID,23.389,VALID,349,VALID,0.353125,
2010-10-17, 00:03:04,VALID,998.733,VALID,0,VALID,90.8688,VALID,0,VALID,23.3695,VALID,349,VALID,0.374219,
2010-10-17, 00:04:04,VALID,998.723,VALID,0,VALID,90.9222,VALID,0,VALID,23.3695,VALID,349,VALID,0.371484,
2010-10-17, 00:05:04,VALID,998.713,VALID,0,VALID,90.9527,VALID,0,VALID,23.311,VALID,349,VALID,0.76875,
2010-10-17, 00:06:04,VALID,998.697,VALID,0,VALID,90.9603,VALID,0,VALID,23.2915,VALID,351,VALID,0.927344,
2010-10-17, 00:07:04,VALID,998.689,VALID,0,VALID,90.8535,VALID,0,VALID,23.2719,VALID,357,VALID,0.780859,
2010-10-17, 00:08:04,VALID,998.679,VALID,0,VALID,90.8917,VALID,0,VALID,23.2134,VALID,357,VALID,0.757813,
2010-10-17, 00:09:04,VALID,998.659,VALID,0,VALID,91.0671,VALID,0,VALID,23.1939,VALID,357,VALID,0.708594,
2010-10-17, 00:10:04,VALID,998.646,VALID,0,VALID,91.1358,VALID,0,VALID,23.1354,VALID,357,VALID,0.807422,
2010-10-17, 00:11:04,VALID,998.624,VALID,0,VALID,91.1968,VALID,0,VALID,23.1159,VALID,359,VALID,0.876172,
2010-10-17, 00:12:04,VALID,998.628,VALID,0,VALID,91.2579,VALID,0,VALID,23.0964,VALID,15,VALID,0.903516,
2010-10-17, 00:13:04,VALID,998.581,VALID,0,VALID,91.2426,VALID,0,VALID,23.0591,VALID,15,VALID,0.792969,
2010-10-17, 00:14:04,VALID,998.581,VALID,0,VALID,91.2121,VALID,0,VALID,22.9988,VALID,15,VALID,1.01875,
2010-10-17, 00:15:04,VALID,998.591,VALID,0,VALID,91.3266,VALID,0,VALID,22.9598,VALID,17,VALID,0.795313,
2010-10-17, 00:16:04,VALID,998.595,VALID,0,VALID,91.502,VALID,0,VALID,22.9403,VALID,28,VALID,1.26211,
2010-10-17, 00:17:04,VALID,998.579,VALID,0,VALID,91.6775,VALID,0,VALID,22.9403,VALID,33,VALID,1.3125,
2010-10-17, 00:18:04,VALID,998.551,VALID,0,VALID,91.8759,VALID,0,VALID,22.9208,VALID,42,VALID,1.23203,
2010-10-17, 00:19:04,VALID,998.58,VALID,0,VALID,92.0132,VALID,0,VALID,22.8818,VALID,39,VALID,1.35781,
2010-10-17, 00:20:04,VALID,998.593,VALID,0,VALID,92.12,VALID,0,VALID,22.8818,VALID,36,VALID,1.45469,
2010-10-17, 00:21:04,VALID,998.589,VALID,0,VALID,92.2192,VALID,0,VALID,22.8623,VALID,36,VALID,1.34805,
2010-10-17, 00:22:04,VALID,998.601,VALID,0,VALID,92.3184,VALID,0,VALID,22.8427,VALID,36,VALID,1.17773,
2010-10-17, 00:23:04,VALID,998.577,VALID,0,VALID,92.3566,VALID,0,VALID,22.8215,VALID,36,VALID,0.985937,
2010-10-17, 00:24:04,VALID,998.572,VALID,0,VALID,92.4481,VALID,0,VALID,22.8232,VALID,46,VALID,0.970312,
2010-10-17, 00:25:04,VALID,998.559,VALID,0,VALID,92.5015,VALID,0,VALID,22.8037,VALID,46,VALID,0.944922,
2010-10-17, 00:26:04,VALID,998.583,VALID,0,VALID,92.5549,VALID,0,VALID,22.8037,VALID,46,VALID,0.830859,
2010-10-17, 00:27:04,VALID,998.563,VALID,0,VALID,92.5931,VALID,0,VALID,22.8232,VALID,46,VALID,0.821484,
2010-10-17, 00:28:04,VALID,998.569,VALID,0,VALID,92.6465,VALID,0,VALID,22.8232,VALID,46,VALID,0.826953,
2010-10-17, 00:29:04,VALID,998.567,VALID,0,VALID,92.6846,VALID,0,VALID,22.8037,VALID,46,VALID,0.749219,
2010-10-17, 00:30:04,VALID,998.591,VALID,0,VALID,92.6846,VALID,0,VALID,22.8037,VALID,46,VALID,0.725391,
2010-10-17, 00:31:04,VALID,998.614,VALID,0,VALID,92.6617,VALID,0,VALID,22.7647,VALID,46,VALID,0.550781,
2010-10-17, 00:32:04,VALID,998.628,VALID,0,VALID,92.6694,VALID,0,VALID,22.7647,VALID,46,VALID,0.545313,
2010-10-17, 00:33:04,VALID,998.622,VALID,0,VALID,92.6541,VALID,0,VALID,22.7257,VALID,46,VALID,0.535547,
2010-10-17, 00:34:04,VALID,998.601,VALID,0,VALID,92.6694,VALID,0,VALID,22.724,VALID,46,VALID,0.683594,
2010-10-17, 00:35:04,VALID,998.601,VALID,0,VALID,92.7075,VALID,0,VALID,22.7452,VALID,50,VALID,0.849219,
2010-10-17, 00:36:04,VALID,998.599,VALID,0,VALID,92.6999,VALID,0,VALID,22.7664,VALID,74,VALID,0.946094,
2010-10-17, 00:37:04,VALID,998.55,VALID,0,VALID,92.6923,VALID,0,VALID,22.7257,VALID,74,VALID,1.02422,
2010-10-17, 00:38:04,VALID,998.554,VALID,0,VALID,92.6541,VALID,0,VALID,22.7062,VALID,87,VALID,0.814062,
2010-10-17, 00:39:04,VALID,998.555,VALID,0,VALID,92.5854,VALID,0,VALID,22.6867,VALID,90,VALID,0.573047,
2010-10-17, 00:40:04,VALID,998.522,VALID,0,VALID,92.532,VALID,0,VALID,22.6867,VALID,90,VALID,0.578125,
2010-10-17, 00:41:04,VALID,998.533,VALID,0,VALID,92.4939,VALID,0,VALID,22.6672,VALID,90,VALID,0.505859,
2010-10-17, 00:42:04,VALID,998.496,VALID,0,VALID,92.4863,VALID,0,VALID,22.6672,VALID,90,VALID,0.291016,
2010-10-17, 00:43:04,VALID,998.52,VALID,0,VALID,92.4557,VALID,0,VALID,22.6477,VALID,90,VALID,0.139453,
2010-10-17, 00:44:04,VALID,998.517,VALID,0,VALID,92.4023,VALID,0,VALID,22.6494,VALID,90,VALID,0.401563,
2010-10-17, 00:45:04,VALID,998.493,VALID,0,VALID,92.3947,VALID,0,VALID,22.6282,VALID,131,VALID,0.880078,
2010-10-17, 00:46:04,VALID,998.517,VALID,0,VALID,92.4786,VALID,0,VALID,22.6867,VALID,141,VALID,1.10742,
2010-10-17, 00:47:04,VALID,998.509,VALID,0,VALID,92.4863,VALID,0,VALID,22.7062,VALID,141,VALID,1.2875,
2010-10-17, 00:48:04,VALID,998.514,VALID,0,VALID,92.4863,VALID,0,VALID,22.7257,VALID,162,VALID,1.16445,
2010-10-17, 00:49:04,VALID,998.516,VALID,0,VALID,92.4634,VALID,0,VALID,22.7842,VALID,186,VALID,1.42461,
2010-10-17, 00:50:04,VALID,998.543,VALID,0,VALID,92.4786,VALID,0,VALID,22.8623,VALID,202,VALID,1.2125,
2010-10-17, 00:51:04,VALID,998.556,VALID,0,VALID,92.4481,VALID,0,VALID,22.9013,VALID,206,VALID,1.07344,
2010-10-17, 00:52:04,VALID,998.551,VALID,0,VALID,92.3184,VALID,0,VALID,22.9598,VALID,213,VALID,0.769922,
2010-10-17, 00:53:04,VALID,998.517,VALID,0,VALID,92.1658,VALID,0,VALID,23.0183,VALID,213,VALID,0.879687,
2010-10-17, 00:54:04,VALID,998.513,VALID,0,VALID,91.9674,VALID,0,VALID,23.0396,VALID,197,VALID,1.08672,
2010-10-17, 00:55:04,VALID,998.487,VALID,0,VALID,91.7614,VALID,0,VALID,23.0378,VALID,185,VALID,1.2375,
2010-10-17, 00:56:04,VALID,998.467,VALID,0,VALID,91.502,VALID,0,VALID,23.0378,VALID,185,VALID,1.81133,
2010-10-17, 00:57:04,VALID,998.473,VALID,0,VALID,91.0595,VALID,0,VALID,23.0964,VALID,171,VALID,1.16211,
2010-10-17, 00:58:04,VALID,998.461,VALID,0,VALID,90.6933,VALID,0,VALID,23.1354,VALID,170,VALID,1.38359,
2010-10-17, 00:59:04,VALID,998.455,VALID,0,VALID,90.3881,VALID,0,VALID,23.1549,VALID,166,VALID,1.09805,
2010-10-17, 01:00:04,VALID,998.406,VALID,0,VALID,90.2508,VALID,0,VALID,23.1354,VALID,161,VALID,0.939453,
2010-10-17, 01:01:04,VALID,998.431,VALID,0,VALID,90.0219,VALID,0,VALID,23.1354,VALID,161,VALID,0.878906,
2010-10-17, 01:02:04,VALID,998.417,VALID,0,VALID,89.9303,VALID,0,VALID,23.0964,VALID,161,VALID,0.419141,
2010-10-17, 01:03:04,VALID,998.42,VALID,0,VALID,89.9609,VALID,0,VALID,23.0591,VALID,161,VALID,0.153906,
2010-10-17, 01:04:04,VALID,998.426,VALID,0,VALID,90.06,VALID,0,VALID,23.0183,VALID,161,VALID,0.200391,
2010-10-17, 01:05:04,VALID,998.416,VALID,0,VALID,90.1821,VALID,0,VALID,23.0006,VALID,161,VALID,0.294141,
2010-10-17, 01:06:04,VALID,998.4,VALID,0,VALID,90.3042,VALID,0,VALID,22.9615,VALID,161,VALID,0.461328,
2010-10-17, 01:07:04,VALID,998.404,VALID,0,VALID,90.472,VALID,0,VALID,22.9208,VALID,161,VALID,0.600781,
2010-10-17, 01:08:04,VALID,998.375,VALID,0,VALID,90.678,VALID,0,VALID,22.9013,VALID,116,VALID,0.858984,
2010-10-17, 01:09:04,VALID,998.391,VALID,0,VALID,90.7391,VALID,0,VALID,22.9225,VALID,112,VALID,0.877344,
2010-10-17, 01:10:04,VALID,998.358,VALID,0,VALID,90.7696,VALID,0,VALID,22.8623,VALID,112,VALID,0.776563,
2010-10-17, 01:11:04,VALID,998.378,VALID,0,VALID,90.823,VALID,0,VALID,22.8427,VALID,112,VALID,0.38125,
2010-10-17, 01:12:04,VALID,998.362,VALID,0,VALID,90.8917,VALID,0,VALID,22.8232,VALID,112,VALID,0.315625,
2010-10-17, 01:13:04,VALID,998.36,VALID,0,VALID,90.9374,VALID,0,VALID,22.7842,VALID,112,VALID,0.0316406,
2010-10-17, 01:14:04,VALID,998.348,VALID,0,VALID,90.9146,VALID,0,VALID,22.7647,VALID,112,VALID,0,
2010-10-17, 01:15:04,VALID,998.32,VALID,0,VALID,90.968,VALID,0,VALID,22.7452,VALID,112,VALID,0,
2010-10-17, 01:16:04,VALID,998.298,VALID,0,VALID,91.09,VALID,0,VALID,22.7257,VALID,112,VALID,0.173438,
2010-10-17, 01:17:04,VALID,998.282,VALID,0,VALID,91.235,VALID,0,VALID,22.7062,VALID,115,VALID,0.372656,
2010-10-17, 01:18:04,VALID,998.27,VALID,0,VALID,91.3952,VALID,0,VALID,22.7647,VALID,154,VALID,0.570703,
2010-10-17, 01:19:04,VALID,998.268,VALID,0,VALID,91.4563,VALID,0,VALID,22.7257,VALID,158,VALID,0.317969,
2010-10-17, 01:20:04,VALID,998.246,VALID,0,VALID,91.4105,VALID,0,VALID,22.7062,VALID,157,VALID,0.380469,
2010-10-17, 01:21:04,VALID,998.198,VALID,0,VALID,91.38,VALID,0,VALID,22.6867,VALID,157,VALID,0.111328,
2010-10-17, 01:22:04,VALID,998.193,VALID,0,VALID,91.4181,VALID,0,VALID,22.646,VALID,157,VALID,0.641016,
2010-10-17, 01:23:04,VALID,998.173,VALID,0,VALID,91.5402,VALID,0,VALID,22.6477,VALID,140,VALID,0.867188,
2010-10-17, 01:24:04,VALID,998.163,VALID,0,VALID,91.6241,VALID,0,VALID,22.6282,VALID,104,VALID,0.966406,
2010-10-17, 01:25:04,VALID,998.136,VALID,0,VALID,91.6623,VALID,0,VALID,22.6477,VALID,104,VALID,0.622656,
2010-10-17, 01:26:04,VALID,998.132,VALID,0,VALID,91.6775,VALID,0,VALID,22.6087,VALID,104,VALID,0.519922,
2010-10-17, 01:27:04,VALID,998.114,VALID,0,VALID,91.647,VALID,0,VALID,22.5892,VALID,104,VALID,0.745313,
2010-10-17, 01:28:04,VALID,998.142,VALID,0,VALID,91.6775,VALID,0,VALID,22.5501,VALID,104,VALID,0.795703,
2010-10-17, 01:29:04,VALID,998.142,VALID,0,VALID,91.6851,VALID,0,VALID,22.5306,VALID,104,VALID,0.539063,
2010-10-17, 01:30:04,VALID,998.162,VALID,0,VALID,91.7538,VALID,0,VALID,22.4916,VALID,104,VALID,0.541406,
2010-10-17, 01:31:04,VALID,998.219,VALID,0,VALID,91.7385,VALID,0,VALID,22.4526,VALID,104,VALID,0.453125,
2010-10-17, 01:32:04,VALID,998.234,VALID,0,VALID,91.6623,VALID,0,VALID,22.3746,VALID,104,VALID,0.585547,
2010-10-17, 01:33:04,VALID,998.247,VALID,0,VALID,91.7004,VALID,0,VALID,22.3356,VALID,104,VALID,0.569531,
2010-10-17, 01:34:04,VALID,998.294,VALID,0,VALID,91.9064,VALID,0,VALID,22.3161,VALID,104,VALID,0.462109,
2010-10-17, 01:35:04,VALID,998.27,VALID,0,VALID,92.0514,VALID,0,VALID,22.2966,VALID,104,VALID,0.4125,
2010-10-17, 01:36:04,VALID,998.298,VALID,0,VALID,92.1353,VALID,0,VALID,22.2771,VALID,104,VALID,0.242969,
2010-10-17, 01:37:04,VALID,998.291,VALID,0,VALID,92.2879,VALID,0,VALID,22.2966,VALID,104,VALID,0.312109,
2010-10-17, 01:38:04,VALID,998.27,VALID,0,VALID,92.4176,VALID,0,VALID,22.3373,VALID,104,VALID,0.329688,
2010-10-17, 01:39:04,VALID,998.259,VALID,0,VALID,92.5091,VALID,0,VALID,22.3356,VALID,104,VALID,0.530469,
2010-10-17, 01:40:04,VALID,998.266,VALID,0,VALID,92.5854,VALID,0,VALID,22.3356,VALID,104,VALID,0.548437,
2010-10-17, 01:41:04,VALID,998.27,VALID,0,VALID,92.6541,VALID,0,VALID,22.3551,VALID,104,VALID,0.358203,
2010-10-17, 01:42:04,VALID,998.265,VALID,0,VALID,92.7228,VALID,0,VALID,22.3551,VALID,104,VALID,0.321094,
2010-10-17, 01:43:04,VALID,998.223,VALID,0,VALID,92.7991,VALID,0,VALID,22.3746,VALID,104,VALID,0.338672,
2010-10-17, 01:44:04,VALID,998.249,VALID,0,VALID,92.822,VALID,0,VALID,22.3746,VALID,104,VALID,0.485938,
2010-10-17, 01:45:04,VALID,998.208,VALID,0,VALID,92.8754,VALID,0,VALID,22.3746,VALID,104,VALID,0.491016,
2010-10-17, 01:46:04,VALID,998.216,VALID,0,VALID,92.8983,VALID,0,VALID,22.3746,VALID,88,VALID,0.847266,
2010-10-17, 01:47:04,VALID,998.224,VALID,0,VALID,92.9135,VALID,0,VALID,22.3551,VALID,88,VALID,0.616406,
2010-10-17, 01:48:04,VALID,998.243,VALID,0,VALID,92.9059,VALID,0,VALID,22.3161,VALID,88,VALID,0.616016,
2010-10-17, 01:49:04,VALID,998.268,VALID,0,VALID,92.9135,VALID,0,VALID,22.3161,VALID,88,VALID,0.562109,
2010-10-17, 01:50:04,VALID,998.263,VALID,0,VALID,92.9364,VALID,0,VALID,22.2771,VALID,88,VALID,0.413281,
2010-10-17, 01:51:04,VALID,998.237,VALID,0,VALID,92.9135,VALID,0,VALID,22.2381,VALID,88,VALID,0.478125,
2010-10-17, 01:52:04,VALID,998.267,VALID,0,VALID,92.8906,VALID,0,VALID,22.2202,VALID,88,VALID,0.473437,
2010-10-17, 01:53:04,VALID,998.283,VALID,0,VALID,92.883,VALID,0,VALID,22.1795,VALID,88,VALID,0.635156,
2010-10-17, 01:54:04,VALID,998.268,VALID,0,VALID,92.8983,VALID,0,VALID,22.199,VALID,85,VALID,0.675781,
2010-10-17, 01:55:04,VALID,998.268,VALID,0,VALID,92.9364,VALID,0,VALID,22.199,VALID,36,VALID,0.753906,
2010-10-17, 01:56:04,VALID,998.282,VALID,0,VALID,92.9745,VALID,0,VALID,22.2186,VALID,36,VALID,0.686719,
2010-10-17, 01:57:04,VALID,998.296,VALID,0,VALID,92.9974,VALID,0,VALID,22.2202,VALID,36,VALID,0.357812,
2010-10-17, 01:58:04,VALID,998.307,VALID,0,VALID,93.0051,VALID,0,VALID,22.1795,VALID,36,VALID,0.311328,
2010-10-17, 01:59:04,VALID,998.276,VALID,0,VALID,93.0127,VALID,0,VALID,22.16,VALID,36,VALID,0.280078,
2010-10-17, 02:00:04,VALID,998.271,VALID,0,VALID,93.0432,VALID,0,VALID,22.1405,VALID,36,VALID,0.291016,
2010-10-17, 02:01:04,VALID,998.265,VALID,0,VALID,93.0432,VALID,0,VALID,22.16,VALID,36,VALID,0.311328,
2010-10-17, 02:02:04,VALID,998.3,VALID,0,VALID,93.0966,VALID,0,VALID,22.1795,VALID,36,VALID,0.287891,
2010-10-17, 02:03:04,VALID,998.27,VALID,0,VALID,93.1195,VALID,0,VALID,22.1795,VALID,36,VALID,0.00585938,
2010-10-17, 02:04:04,VALID,998.279,VALID,0,VALID,93.1348,VALID,0,VALID,22.16,VALID,36,VALID,0.146484,
2010-10-17, 02:05:04,VALID,998.245,VALID,0,VALID,93.1424,VALID,0,VALID,22.1405,VALID,36,VALID,0.238281,
2010-10-17, 02:06:04,VALID,998.221,VALID,0,VALID,93.1348,VALID,0,VALID,22.121,VALID,36,VALID,0.371094,
2010-10-17, 02:07:04,VALID,998.197,VALID,0,VALID,93.1043,VALID,0,VALID,22.082,VALID,36,VALID,0.426562,
2010-10-17, 02:08:04,VALID,998.188,VALID,0,VALID,93.1271,VALID,0,VALID,22.082,VALID,36,VALID,0.683203,
2010-10-17, 02:09:04,VALID,998.17,VALID,0,VALID,93.1729,VALID,0,VALID,22.121,VALID,36,VALID,0.805078,
2010-10-17, 02:10:04,VALID,998.198,VALID,0,VALID,93.1805,VALID,0,VALID,22.1015,VALID,35,VALID,1.13906,
2010-10-17, 02:11:04,VALID,998.174,VALID,0,VALID,93.2263,VALID,0,VALID,22.121,VALID,27,VALID,1.17656,
2010-10-17, 02:12:04,VALID,998.166,VALID,0,VALID,93.234,VALID,0,VALID,22.1015,VALID,27,VALID,1.25625,
2010-10-17, 02:13:04,VALID,998.138,VALID,0,VALID,93.234,VALID,0,VALID,22.043,VALID,27,VALID,1.32852,
2010-10-17, 02:14:04,VALID,998.142,VALID,0,VALID,93.2187,VALID,0,VALID,22.0235,VALID,22,VALID,1.32266,
2010-10-17, 02:15:04,VALID,998.1,VALID,0,VALID,93.2111,VALID,0,VALID,21.9845,VALID,16,VALID,1.44961,
2010-10-17, 02:16:04,VALID,998.103,VALID,0,VALID,93.1729,VALID,0,VALID,21.965,VALID,16,VALID,1.58672,
2010-10-17, 02:17:04,VALID,998.08,VALID,0,VALID,93.1424,VALID,0,VALID,21.965,VALID,16,VALID,1.46211,
2010-10-17, 02:18:04,VALID,998.061,VALID,0,VALID,93.1043,VALID,0,VALID,21.965,VALID,17,VALID,1.54805,
2010-10-17, 02:19:04,VALID,998.053,VALID,0,VALID,93.028,VALID,0,VALID,21.965,VALID,19,VALID,1.39063,
2010-10-17, 02:20:04,VALID,998.065,VALID,0,VALID,92.9593,VALID,0,VALID,21.9455,VALID,34,VALID,1.45469,
2010-10-17, 02:21:04,VALID,998.069,VALID,0,VALID,92.9288,VALID,0,VALID,21.9845,VALID,33,VALID,1.64961,
2010-10-17, 02:22:04,VALID,998.068,VALID,0,VALID,92.8677,VALID,0,VALID,22.004,VALID,34,VALID,1.77266,
2010-10-17, 02:23:04,VALID,998.051,VALID,0,VALID,92.8296,VALID,0,VALID,22.043,VALID,47,VALID,1.62812,
2010-10-17, 02:24:04,VALID,998.061,VALID,0,VALID,92.7457,VALID,0,VALID,22.0625,VALID,51,VALID,1.75781,
2010-10-17, 02:25:04,VALID,998.071,VALID,0,VALID,92.6312,VALID,0,VALID,22.082,VALID,58,VALID,1.56289,
2010-10-17, 02:26:04,VALID,998.078,VALID,0,VALID,92.471,VALID,0,VALID,22.1015,VALID,63,VALID,1.39648,
2010-10-17, 02:27:04,VALID,998.06,VALID,0,VALID,92.3184,VALID,0,VALID,22.121,VALID,60,VALID,1.20469,
2010-10-17, 02:28:04,VALID,998.075,VALID,0,VALID,92.1734,VALID,0,VALID,22.1194,VALID,60,VALID,0.958594,
2010-10-17, 02:29:04,VALID,998.072,VALID,0,VALID,92.0666,VALID,0,VALID,22.1405,VALID,60,VALID,0.905078,
2010-10-17, 02:30:04,VALID,998.064,VALID,0,VALID,91.9903,VALID,0,VALID,22.1405,VALID,60,VALID,0.586328,
2010-10-17, 02:31:04,VALID,998.05,VALID,0,VALID,91.9598,VALID,0,VALID,22.1405,VALID,60,VALID,0.567969,
2010-10-17, 02:32:04,VALID,998.056,VALID,0,VALID,91.9674,VALID,0,VALID,22.1405,VALID,58,VALID,0.634375,
2010-10-17, 02:33:04,VALID,998.026,VALID,0,VALID,91.8606,VALID,0,VALID,22.121,VALID,35,VALID,0.971484,
2010-10-17, 02:34:04,VALID,998.033,VALID,0,VALID,91.7462,VALID,0,VALID,22.121,VALID,33,VALID,0.940234,
2010-10-17, 02:35:04,VALID,998.022,VALID,0,VALID,91.6317,VALID,0,VALID,22.121,VALID,36,VALID,0.815625,
2010-10-17, 02:36:04,VALID,998.017,VALID,0,VALID,91.5402,VALID,0,VALID,22.1015,VALID,36,VALID,0.817578,
2010-10-17, 02:37:04,VALID,997.984,VALID,0,VALID,91.4334,VALID,0,VALID,22.1015,VALID,31,VALID,0.973437,
2010-10-17, 02:38:04,VALID,997.971,VALID,0,VALID,91.3571,VALID,0,VALID,22.082,VALID,28,VALID,1.17383,
2010-10-17, 02:39:04,VALID,997.965,VALID,0,VALID,91.2274,VALID,0,VALID,22.0625,VALID,25,VALID,1.27422,
2010-10-17, 02:40:04,VALID,997.946,VALID,0,VALID,91.1206,VALID,0,VALID,22.0625,VALID,25,VALID,1.36328,
2010-10-17, 02:41:04,VALID,997.967,VALID,0,VALID,90.9985,VALID,0,VALID,22.0837,VALID,30,VALID,1.32656,
2010-10-17, 02:42:04,VALID,997.935,VALID,0,VALID,90.8154,VALID,0,VALID,22.0625,VALID,37,VALID,1.49141,
2010-10-17, 02:43:04,VALID,997.941,VALID,0,VALID,90.6017,VALID,0,VALID,22.0625,VALID,47,VALID,1.38516,
2010-10-17, 02:44:04,VALID,997.964,VALID,0,VALID,90.4415,VALID,0,VALID,22.0625,VALID,47,VALID,1.675,
2010-10-17, 02:45:04,VALID,997.969,VALID,0,VALID,90.205,VALID,0,VALID,22.0625,VALID,47,VALID,1.7293,
2010-10-17, 02:46:04,VALID,998.009,VALID,0,VALID,90.2279,VALID,0,VALID,22.082,VALID,43,VALID,1.39219,
2010-10-17, 02:47:04,VALID,998.021,VALID,0,VALID,90.3042,VALID,0,VALID,22.1015,VALID,46,VALID,1.26094,
2010-10-17, 02:48:04,VALID,998.048,VALID,0,VALID,90.411,VALID,0,VALID,22.1015,VALID,49,VALID,1.09336,
2010-10-17, 02:49:04,VALID,998.038,VALID,0,VALID,90.5102,VALID,0,VALID,22.1015,VALID,49,VALID,1.12109,
2010-10-17, 02:50:04,VALID,998.043,VALID,0,VALID,90.4873,VALID,0,VALID,22.082,VALID,49,VALID,1.13711,
2010-10-17, 02:51:04,VALID,998.084,VALID,0,VALID,90.411,VALID,0,VALID,22.082,VALID,49,VALID,0.947656,
2010-10-17, 02:52:04,VALID,998.078,VALID,0,VALID,90.2737,VALID,0,VALID,22.082,VALID,49,VALID,0.713281,
2010-10-17, 02:53:04,VALID,998.107,VALID,0,VALID,90.2431,VALID,0,VALID,22.082,VALID,49,VALID,0.689453,
2010-10-17, 02:54:04,VALID,998.112,VALID,0,VALID,90.2813,VALID,0,VALID,22.082,VALID,49,VALID,0.660156,
2010-10-17, 02:55:04,VALID,998.126,VALID,0,VALID,90.1974,VALID,0,VALID,22.0837,VALID,49,VALID,0.867969,
2010-10-17, 02:56:04,VALID,998.13,VALID,0,VALID,90.144,VALID,0,VALID,22.082,VALID,49,VALID,0.936719,
2010-10-17, 02:57:04,VALID,998.143,VALID,0,VALID,90.1897,VALID,0,VALID,22.0625,VALID,49,VALID,1.08008,
2010-10-17, 02:58:04,VALID,998.171,VALID,0,VALID,90.205,VALID,0,VALID,22.082,VALID,49,VALID,0.769141,
2010-10-17, 02:59:04,VALID,998.192,VALID,0,VALID,90.266,VALID,0,VALID,22.082,VALID,49,VALID,0.715234,
2010-10-17, 03:00:04,VALID,998.207,VALID,0,VALID,90.3347,VALID,0,VALID,22.082,VALID,49,VALID,0.574219,
2010-10-17, 03:01:04,VALID,998.252,VALID,0,VALID,90.4873,VALID,0,VALID,22.082,VALID,49,VALID,0.655469,
2010-10-17, 03:02:04,VALID,998.244,VALID,0,VALID,90.6017,VALID,0,VALID,22.082,VALID,49,VALID,0.607031,
2010-10-17, 03:03:04,VALID,998.292,VALID,0,VALID,90.6933,VALID,0,VALID,22.0625,VALID,49,VALID,0.587891,
2010-10-17, 03:04:04,VALID,998.256,VALID,0,VALID,90.7849,VALID,0,VALID,22.0642,VALID,49,VALID,0.582422,
2010-10-17, 03:05:04,VALID,998.266,VALID,0,VALID,90.8688,VALID,0,VALID,22.0625,VALID,49,VALID,0.56875,
2010-10-17, 03:06:04,VALID,998.261,VALID,0,VALID,90.884,VALID,0,VALID,22.0235,VALID,49,VALID,0.669141,
2010-10-17, 03:07:04,VALID,998.285,VALID,0,VALID,90.8459,VALID,0,VALID,22.0235,VALID,49,VALID,0.575781,
2010-10-17, 03:08:04,VALID,998.277,VALID,0,VALID,90.884,VALID,0,VALID,22.0235,VALID,49,VALID,0.38125,
2010-10-17, 03:09:04,VALID,998.301,VALID,0,VALID,90.9146,VALID,0,VALID,22.0235,VALID,49,VALID,0.291406,
2010-10-17, 03:10:04,VALID,998.32,VALID,0,VALID,91.0214,VALID,0,VALID,22.004,VALID,49,VALID,0.238672,
2010-10-17, 03:11:04,VALID,998.327,VALID,0,VALID,91.1129,VALID,0,VALID,22.0235,VALID,49,VALID,0.321875,
2010-10-17, 03:12:04,VALID,998.388,VALID,0,VALID,91.1206,VALID,0,VALID,22.004,VALID,49,VALID,0.640234,
2010-10-17, 03:13:04,VALID,998.384,VALID,0,VALID,91.1206,VALID,0,VALID,22.004,VALID,359,VALID,1.1082,
2010-10-17, 03:14:04,VALID,998.425,VALID,0,VALID,91.0748,VALID,0,VALID,22.0235,VALID,358,VALID,1.05,
2010-10-17, 03:15:04,VALID,998.431,VALID,0,VALID,90.9909,VALID,0,VALID,22.043,VALID,352,VALID,1.20117,
2010-10-17, 03:16:04,VALID,998.443,VALID,0,VALID,90.8306,VALID,0,VALID,22.0235,VALID,352,VALID,1.12695,
2010-10-17, 03:17:04,VALID,998.461,VALID,0,VALID,90.556,VALID,0,VALID,22.043,VALID,351,VALID,1.25352,
2010-10-17, 03:18:04,VALID,998.464,VALID,0,VALID,90.1516,VALID,0,VALID,22.043,VALID,350,VALID,1.24102,
2010-10-17, 03:19:04,VALID,998.472,VALID,0,VALID,89.9151,VALID,0,VALID,22.1015,VALID,350,VALID,1.02539,
2010-10-17, 03:20:04,VALID,998.476,VALID,0,VALID,90.0448,VALID,0,VALID,22.1015,VALID,350,VALID,0.769531,
2010-10-17, 03:21:04,VALID,998.504,VALID,0,VALID,90.2279,VALID,0,VALID,22.082,VALID,350,VALID,0.789453,
2010-10-17, 03:22:04,VALID,998.523,VALID,0,VALID,90.4034,VALID,0,VALID,22.0625,VALID,350,VALID,0.672656,
2010-10-17, 03:23:04,VALID,998.539,VALID,0,VALID,90.5483,VALID,0,VALID,22.0235,VALID,323,VALID,0.611328,
2010-10-17, 03:24:04,VALID,998.567,VALID,0,VALID,90.6551,VALID,0,VALID,22.004,VALID,308,VALID,0.501953,
2010-10-17, 03:25:04,VALID,998.574,VALID,0,VALID,90.678,VALID,0,VALID,22.0235,VALID,200,VALID,1.13711,
2010-10-17, 03:26:04,VALID,998.577,VALID,0,VALID,90.6933,VALID,0,VALID,22.043,VALID,194,VALID,0.439844,
2010-10-17, 03:27:04,VALID,998.609,VALID,0,VALID,90.6704,VALID,0,VALID,22.0625,VALID,194,VALID,0.29375,
2010-10-17, 03:28:04,VALID,998.593,VALID,0,VALID,90.5102,VALID,0,VALID,22.0625,VALID,194,VALID,0.21875,
2010-10-17, 03:29:04,VALID,998.607,VALID,0,VALID,90.3118,VALID,0,VALID,22.082,VALID,194,VALID,0.163672,
2010-10-17, 03:30:04,VALID,998.624,VALID,0,VALID,90.144,VALID,0,VALID,22.1015,VALID,194,VALID,0.354688,
2010-10-17, 03:31:04,VALID,998.648,VALID,0,VALID,89.8693,VALID,0,VALID,22.121,VALID,169,VALID,0.826563,
2010-10-17, 03:32:04,VALID,998.692,VALID,0,VALID,89.9837,VALID,0,VALID,22.1584,VALID,164,VALID,0.748047,
2010-10-17, 03:33:04,VALID,998.663,VALID,0,VALID,90.0295,VALID,0,VALID,22.199,VALID,164,VALID,0.553125,
2010-10-17, 03:34:04,VALID,998.698,VALID,0,VALID,89.9914,VALID,0,VALID,22.2397,VALID,164,VALID,0.0792969,
2010-10-17, 03:35:04,VALID,998.718,VALID,0,VALID,89.9227,VALID,0,VALID,22.199,VALID,164,VALID,0.0253906,
2010-10-17, 03:36:04,VALID,998.753,VALID,0,VALID,89.8769,VALID,0,VALID,22.16,VALID,164,VALID,0.0757812,
2010-10-17, 03:37:04,VALID,998.772,VALID,0,VALID,89.999,VALID,0,VALID,22.121,VALID,164,VALID,0.0289063,
2010-10-17, 03:38:04,VALID,998.804,VALID,0,VALID,90.1821,VALID,0,VALID,22.1227,VALID,164,VALID,0.20625,
2010-10-17, 03:39:04,VALID,998.773,VALID,0,VALID,90.3881,VALID,0,VALID,22.082,VALID,164,VALID,0.259375,
2010-10-17, 03:40:04,VALID,998.808,VALID,0,VALID,90.5483,VALID,0,VALID,22.0625,VALID,164,VALID,0.435547,
2010-10-17, 03:41:04,VALID,998.843,VALID,0,VALID,90.6857,VALID,0,VALID,22.043,VALID,158,VALID,0.524609,
2010-10-17, 03:42:04,VALID,998.876,VALID,0,VALID,90.9451,VALID,0,VALID,22.043,VALID,141,VALID,0.563672,
2010-10-17, 03:43:04,VALID,998.913,VALID,0,VALID,91.174,VALID,0,VALID,22.1032,VALID,77,VALID,0.954687,
2010-10-17, 03:44:04,VALID,998.916,VALID,0,VALID,91.1968,VALID,0,VALID,22.082,VALID,77,VALID,0.905859,
2010-10-17, 03:45:04,VALID,998.94,VALID,0,VALID,91.3037,VALID,0,VALID,22.082,VALID,77,VALID,0.900391,
2010-10-17, 03:46:04,VALID,998.949,VALID,0,VALID,91.3418,VALID,0,VALID,22.082,VALID,77,VALID,1.00312,